This is the latest recevied weather packets stored in our database for station/object 9M8ZAL-13. If no packets are shown the sender has not sent any weather packets the latest 10 day(s).
| Time | Temp. | Humidity | Pressure | Rain* | Wind** | Luminosity | Snow |
|---|---|---|---|---|---|---|---|
| 1777700608 | 34.44° C | - | 1006.7 hPa | - | - | 1008 W/m² | - |
| 1777700008 | 33.33° C | - | 1007 hPa | - | - | 1007 W/m² | - |
| 1777699408 | 34.44° C | - | 1007.3 hPa | - | - | 1008 W/m² | - |
| 1777698808 | 33.33° C | - | 1007.6 hPa | - | - | 1007 W/m² | - |
| 1777698209 | 33.33° C | - | 1007.9 hPa | - | - | 1008 W/m² | - |
| 1777697608 | 32.78° C | - | 1008.2 hPa | - | - | 1008 W/m² | - |
| 1777697008 | 32.78° C | - | 1008.5 hPa | - | - | 1007 W/m² | - |
| 1777696408 | 33.33° C | - | 1008.4 hPa | - | - | 1008 W/m² | - |
| 1777695808 | 32.78° C | - | 1008.5 hPa | - | - | 1007 W/m² | - |
| 1777695208 | 32.78° C | - | 1008.7 hPa | - | - | 1009 W/m² | - |
| 1777694608 | 32.22° C | - | 1008.9 hPa | - | - | 1009 W/m² | - |
| 1777694008 | 32.22° C | - | 1009.1 hPa | - | - | 1007 W/m² | - |
| 1777693408 | 32.22° C | - | 1009.2 hPa | - | - | 1008 W/m² | - |
| 1777692808 | 32.22° C | - | 1009.3 hPa | - | - | 1007 W/m² | - |
| 1777692208 | 32.22° C | - | 1009.5 hPa | - | - | 1006 W/m² | - |
| 1777691608 | 32.22° C | - | 1009.5 hPa | - | - | 1007 W/m² | - |
| 1777691008 | 32.22° C | - | 1009.6 hPa | - | - | 1008 W/m² | - |
| 1777690408 | 32.22° C | - | 1009.7 hPa | - | - | 1008 W/m² | - |
| 1777689808 | 31.11° C | - | 1009.7 hPa | - | - | 1008 W/m² | - |
| 1777689208 | 31.11° C | - | 1009.7 hPa | - | - | 1007 W/m² | - |
| 1777688608 | 30.56° C | - | 1009.7 hPa | - | - | 1007 W/m² | - |
| 1777688007 | 30.56° C | - | 1009.8 hPa | - | - | 1006 W/m² | - |
| 1777687407 | 30° C | - | 1009.7 hPa | - | - | 1006 W/m² | - |
| 1777686807 | 30° C | - | 1009.6 hPa | - | - | 1005 W/m² | - |
| 1777686208 | 30° C | - | 1009.4 hPa | - | - | 1006 W/m² | - |
* Rain since midnight (hover to see other rain measurements)
** Current wind speed in m/s (hover to see current wind gust speed)